Location: Unspecified
(29.9680°N, 0.0000°E)
Time: 08:43:40
(UTC+00:00)

A-11 Canister half - Pass Details

Date: 25 June 2019
Orbit: 1526 x 1683 km, 47.3° (Epoch: 17 July)

Event Time Altitude Azimuth Distance (km) Brightness Sun altitude
Rises 10:00:19 0° 310° (NW) 4,678 11.3 62.0°
Reaches altitude 10° 10:03:22 10° 312° (NW) 3,693 10.9 62.6°
Maximum altitude 10:12:41 78° 39° (NE) 1,567 10.7 64.6°
Drops below altitude 10° 10:22:08 10° 125° (SE) 3,745 11.5 66.7°
Sets 10:25:14 0° 127° (SE) 4,746 11.9 67.3°
